sat.trackr.live / text

‹ back to catalog

STARLINK-3911

NORAD 52565 · 2022-051AJ

PAYLOAD ACTIVE UNKNOWN

§ Identity

Operator
Country
US
Launch date
2022-05-13
Launch site
AFWTR
Launch vehicle
Mass (kg)
RCS (m²)

Purposes: comms

External: N2YO · Heavens-Above · Gunter

§ Orbital elements

Epoch: 2026-09-19T18:27:48.767616Z

Period
93.90 min
Inclination
53.1601°
Eccentricity
0.0001035
Mean motion
15.33558970 rev/d
Perigee alt
464.5 km
Apogee alt
465.9 km
Semi-major
6,843.3 km
B*
1.6062e-5
RAAN
321.3389°
Arg perigee
87.3158°
Mean anomaly
272.7963°
Rev number
24,096

§ Raw data

STARLINK-39111 52565U 22051AJ  26262.76931444  .00000156  00000+0  16062-4 0  99992 52565  53.1601 321.3389 0001035  87.3158 272.7963 15.33558970240964

JSON: /api/v1/satellites/52565 · /tle

For live sub-satellite position, see the globe view (requires WebGL).

§ Visibility from observer

Set your observer location to see the next 7 days of passes ≥ 10°. The values pass through the URL so the page stays shareable.

No JS? Fill the form by hand. The geolocation button needs JavaScript.